Location: Haseloff
(52.0883°N, 12.7569°E)
Time: 11:04:17
(UTC+00:00)

Daily predictions for brighter satellites

Satellite Brightness Start Highest point End
(mag) Time Altitude Azimuth Time Altitude Azimuth Time Altitude Azimuth
NOSS 3-4 (A) 4.0 15:27:20 10° WSW 15:33:20 53° NNW 15:39:50 10° NE
NOSS 3-4 (C) 4.0 15:27:27 10° WSW 15:33:25 53° NNW 15:39:55 10° NE
NOSS 3-1 (A) 4.4 15:27:07 10° NW 15:33:31 40° NNE 15:40:57 10° E
COSMOS 2428 3.1 15:28:25 10° SW 15:34:04 65° NW 15:39:47 10° NNE
Cosmos 1689 Rocket 2.6 15:32:42 10° NNE 15:35:37 41° E 15:38:29 10° S
Cosmos 1707 Rocket 4.0 15:33:15 10° SSW 15:37:43 70° WNW 15:42:12 10° N
Meteor 1-5 Rocket 4.5 15:34:31 10° NNW 15:40:00 72° W 15:45:18 10° S
CZ-4 R/B 3.2 15:39:48 10° ENE 15:40:53 11° NE 15:41:57 10° NE
CZ-4B R/B 3.3 15:36:12 10° SSE 15:41:37 89° W 15:47:09 10° NNW
SJ-7 4.5 15:37:52 10° SSE 15:41:56 58° ENE 15:45:58 10° N
Cosmos 1975 4.2 15:40:01 10° NNE 15:42:48 18° ENE 15:45:35 10° ESE
Envisat 3.9 15:38:49 10° ESE 15:43:00 27° ENE 15:47:12 10° N
Meteor 1-27 Rocket 3.9 15:37:34 10° S 15:43:18 63° E 15:49:10 10° NNE
Meteor 1-11 Rocket 4.1 15:37:19 10° NNW 15:43:20 82° W 15:49:14 10° S
Cosmos 2278 Rocket 3.7 15:38:49 10° NW 15:44:06 42° WSW 15:49:23 10° S
Cosmos 2360 Rocket 3.7 15:39:17 10° W 15:44:08 28° NW 15:49:00 10° NNE
BREEZE-M R/B 3.8 15:38:40 10° W 15:46:00 67° S 15:49:36 10° ESE
Okean 1-7 4.1 15:44:48 10° SE 15:48:26 26° E 15:52:05 10° NNE
Cosmos 407 Rocket 4.4 15:45:25 10° SSE 15:49:55 30° E 15:54:30 10° NE
Cosmos 2369 Rocket 2.7 15:47:19 10° NNW 15:52:32 36° NE 15:57:44 10° ESE
Cosmos 2251 Rocket 3.6 15:47:15 10° SSW 15:52:33 82° WNW 15:57:51 10° NNE
Cosmos 1980 Rocket 4.3 15:50:23 10° NW 15:52:35 12° N 15:54:47 10° NNE
Lacrosse 5 4.0 15:53:13 10° SE 15:54:29 11° ESE 15:55:45 10° ESE
Cosmos 1908 Rocket 3.5 15:50:54 10° N 15:55:18 67° ENE 15:59:37 10° SSE
Okean O Rocket 2.0 15:51:32 10° S 15:55:52 70° WSW 16:00:14 10° NNW
CORIOLIS 4.4 15:51:08 10° SE 15:56:21 49° ENE 16:01:35 10° N
FALCON 9 DEB 3.5 15:53:14 10° WSW 15:56:42 61° SSE 15:59:54 12° ENE
H-2A R/B 4.2 15:58:45 10° N 16:01:50 21° WNW 16:04:55 10° WSW
Cosmos 1743 3.3 15:59:20 10° N 16:02:57 36° ENE 16:06:34 10° SE
Lacrosse 4 Rocket 3.1 16:00:33 10° N 16:03:07 16° NNE 16:04:52 13° NE
Cosmos 1092 Rocket 4.1 15:58:15 10° SSE 16:04:19 55° E 16:10:23 10° NNE
Cosmos 2242 Rocket 3.6 16:00:18 10° S 16:04:50 69° E 16:09:25 10° NNE
SL-16 R/B 2.6 16:00:07 10° S 16:05:29 45° ESE 16:10:50 10° NE
SeaSat 1 4.4 16:04:01 10° NE 16:05:36 11° NNE 16:07:12 10° N
COSMO-SKYMED 1 4.3 16:04:32 13° ENE 16:05:59 15° E 16:08:23 10° ESE
SMAP 3.1 16:02:10 10° SSE 16:06:45 62° ENE 16:11:23 10° N
Cosmos 1943 Rocket 2.4 16:02:03 10° NNW 16:07:34 49° NE 16:12:59 10° SE
Cosmos 921 Rocket 3.0 16:04:14 10° NNW 16:08:34 90° S 16:12:56 10° SSE
STARLINK-60 3.1 16:07:01 10° WSW 16:10:24 81° SSE 16:12:59 16° ENE
Cosmos 2237 Rocket 2.4 16:05:47 10° SW 16:11:30 77° WNW 16:17:13 10° NNE
ATLAS 2AS CENTAUR R/B 3.8 16:03:57 10° W 16:11:33 43° NNW 16:18:22 12° NE
YAOGAN 1 3.9 16:08:47 10° ESE 16:11:52 19° ENE 16:14:58 10° NNE
Abrixas rocket 4.4 16:12:37 10° S 16:14:19 14° SSE 16:16:01 10° ESE
Cosmos 2219 Rocket 3.4 16:10:05 10° WSW 16:15:17 37° NW 16:20:33 10° NNE
Cosmos 2322 Rocket 4.3 16:12:37 10° WNW 16:15:55 15° NNW 16:19:15 10° NNE
Aureole 3 Rocket 3.8 16:13:55 10° NNE 16:16:49 17° E 16:18:24 10° ESE
Cosmos 1812 3.6 16:14:57 10° SSW 16:18:42 49° WNW 16:22:29 10° N
ALOS 4.1 16:16:19 10° SSW 16:20:34 34° W 16:24:51 10° NNW
COBE Rocket 4.0 16:17:10 10° NNE 16:21:45 52° E 16:26:23 10° S
Cosmos 2344 4.3 16:13:40 10° NW 16:22:20 59° NNE 16:34:09 10° ESE
PSLV R/B 3.9 16:18:35 10° NNE 16:22:44 68° ESE 16:26:49 10° S
RESURS DK-1 4.3 16:20:46 10° W 16:24:07 23° NW 16:27:31 10° NNE
Cosmos 1536 4.1 16:20:23 10° NNW 16:24:12 43° W 16:27:59 10° SSW
Okean-O 2.7 16:20:43 10° SE 16:25:01 52° ENE 16:29:21 10° N
Cosmos 2333 Rocket 3.6 16:20:31 10° WSW 16:25:42 33° NW 16:30:57 10° NNE
Cosmos 1763 Rocket 4.3 16:21:24 10° N 16:25:44 27° NE 16:29:23 13° ESE
Ariane Rocket 4.4 16:26:26 17° NE 16:26:32 17° NE 16:29:41 10° NNE
FengYun 1-2 T 4.5 16:22:39 10° SE 16:27:51 45° ENE 16:33:06 10° N
NOSS 0 Rocket 4.5 16:22:19 10° SW 16:28:27 57° NW 16:34:38 10° NNE
SL-16 R/B 4.3 16:26:11 10° NW 16:29:00 14° NNW 16:31:49 10° NNE
Feng Yun 1-1 Rocket 4.2 16:23:56 10° SSE 16:29:20 86° WSW 16:34:50 10° NNW
USA 215 3.6 16:25:37 16° ENE 16:30:46 52° SE 16:37:08 10° SW
CSL-04 Rocket 4.2 16:26:20 10° ESE 16:31:00 33° ENE 16:35:44 10° N
NOAA 12 4.0 16:26:19 10° SSE 16:31:34 69° ENE 16:36:49 10° N
Lacrosse 5 rocket 1.9 16:27:56 10° W 16:32:01 45° N 16:34:16 22° NE
STARLINK-52 3.2 16:30:03 10° WSW 16:33:33 78° SSE 16:35:23 26° E
SL-4 R/B 2.0 16:31:17 10° W 16:35:02 71° SSW 16:38:03 17° ESE
Nadezhda 4 Rocket 4.4 16:29:09 10° SSW 16:35:26 66° WNW 16:41:43 10° N
S3M 4.2 16:30:29 10° N 16:36:28 47° ENE 16:42:22 10° SE
Cosmos 405 Rocket 3.1 16:34:01 10° N 16:37:31 37° ENE 16:41:01 10° SE
Cosmos 614 Rocket 3.8 16:35:28 10° SSW 16:40:32 75° ESE 16:44:49 15° NNE
STARLINK-29 3.1 16:38:08 10° WSW 16:41:41 86° SSE 16:43:13 32° ENE
Meteor 2-4 Rocket 4.5 16:36:49 10° SSE 16:41:48 30° E 16:44:57 18° NE
Cosmos 1867 4.4 16:37:25 10° NW 16:42:44 53° WSW 16:48:00 10° SSE
STARLINK-67 3.7 16:41:34 10° W 16:44:13 42° SSW 16:45:52 19° SE
Okean 1 3.3 16:40:40 10° S 16:44:35 61° E 16:47:43 15° NNE
Cosmos 2151 Rocket 3.9 16:40:59 10° N 16:45:10 40° ENE 16:49:18 10° SE
Cosmos 1553 Rocket 4.0 16:39:40 10° N 16:46:04 69° ENE 16:52:28 10° SSE
Cosmos 1441 Rocket 4.4 16:43:23 10° NNW 16:47:00 43° W 16:50:34 10° SSW
CZ-4B R/B 4.1 16:45:30 10° NNW 16:47:57 18° WNW 16:50:21 10° WSW
Cosmos 1190 Rocket 3.9 16:44:03 10° SSW 16:49:13 74° ESE 16:53:14 17° NNE
Cosmos 1782 Rocket 4.0 16:46:29 10° NNW 16:50:48 62° W 16:55:03 10° S
Cosmos 676 Rocket 4.2 16:47:29 10° S 16:52:28 51° ESE 16:55:23 24° NE
STARLINK-46 2.3 16:49:50 10° WNW 16:52:30 88° SSW 16:52:46 69° ESE
Aureole 1 Rocket 3.4 16:49:35 10° SW 16:52:38 44° WNW 16:55:28 15° NNE
H-2A R/B 3.6 16:49:33 10° S 16:53:08 49° W 16:56:45 10° NNW
YAOGAN 6 2.5 16:50:35 10° SSE 16:54:07 59° ENE 16:57:43 10° N
SKYMED 2 4.1 16:53:11 30° ENE 16:54:33 38° E 16:58:36 10° SSE
CSL-04 Debris 4.3 16:50:09 10° SE 16:55:21 49° ENE 17:00:34 10° N
Cosmos 2026 Rocket 3.9 16:50:01 10° S 16:56:03 88° ESE 17:02:13 10° N
Cosmos 1954 Rocket 4.1 16:52:06 10° S 16:57:07 52° ESE 16:59:50 26° NE
Cosmos 841 Rocket 4.2 16:53:48 10° N 16:58:19 29° NE 16:58:38 29° ENE
CZ-4 R/B 4.4 16:56:06 10° SSE 17:00:14 62° ENE 17:04:22 10° N
Cosmos 1174 4.1 16:55:45 10° SW 17:00:15 65° NW 17:01:59 30° NNE
Cosmos 1544 3.3 16:58:16 10° N 17:03:59 20° SE 17:05:18 10° SSE
Meteor 1-19 Rocket 4.1 16:56:32 10° S 17:01:53 59° E 17:06:29 14° NNE
Cosmos 2263 4.1 16:57:40 10° NNW 17:03:30 74° ENE 17:09:17 10° SE
Cosmos 540 Rocket 4.4 16:59:46 10° N 17:03:48 27° NE 17:03:48 27° NE
Cosmos 1703 Rocket 4.3 17:00:45 10° SSW 17:05:09 54° WNW 17:09:35 10° N
Cosmos 1515 3.8 17:03:02 10° S 17:06:38 47° E 17:06:38 47° E
USA 267 3.7 17:00:45 10° SE 17:07:13 62° SW 17:13:43 10° WNW
NOSS 3-1 (C) 4.0 17:00:33 10° NW 17:07:50 89° NE 17:16:19 10° SE
CZ-4C R/B 2.9 17:05:14 10° S 17:09:45 32° ESE 17:10:27 31° ESE
STARLINK-48 4.3 17:07:16 10° SSW 17:10:49 34° SSE 17:11:07 34° SE
Okean 2 Rocket 3.1 17:06:55 10° NNW 17:11:26 83° W 17:15:57 10° S
Cosmos 1140 Rocket 3.4 17:06:23 10° SSW 17:11:32 89° ESE 17:14:44 24° NNE
IRIDIUM 104 4.5 17:08:54 10° SSE 17:13:53 47° E 17:16:52 23° NNE
CZ-4 R/B 1.1 17:11:23 10° SSE 17:15:15 78° ENE 17:19:07 10° NNW
Meteor 2-9 Rocket 4.4 17:13:37 10° NNW 17:19:30 77° W 17:25:14 10° S
Cosmos 1023 Rocket 4.5 17:14:26 10° SSW 17:19:32 79° WNW 17:22:37 25° NNE
Cosmos 1975 3.5 17:15:42 10° NNW 17:19:38 55° W 17:23:33 10° S
USA 229 DEB 3.9 17:12:40 10° NW 17:19:52 80° SW 17:27:23 10° SE
USA 229 3.9 17:12:46 10° NW 17:19:57 80° SW 17:27:28 10° SE
Meteor 2-8 Rocket 4.4 17:15:25 10° N 17:21:22 54° ENE 17:27:17 10° SSE
Envisat 3.6 17:16:44 10° S 17:21:44 58° W 17:26:46 10° NNW
Cosmos 883 Rocket 4.5 17:15:53 10° N 17:22:10 61° ENE 17:28:22 10° SSE
Cosmos 2221 Rocket 3.5 17:18:04 10° S 17:22:32 90° ESE 17:24:57 27° N
IRIDIUM 114 4.3 17:17:55 10° SSE 17:23:00 56° E 17:26:01 24° NNE
Cosmos 1656 Rocket 3.5 17:18:19 10° NNW 17:23:46 66° NE 17:26:28 30° SE
Cosmos 468 Rocket 3.8 17:18:49 10° NNW 17:24:01 78° ENE 17:29:16 10° SSE
NOAA 11 4.1 17:19:02 10° SSE 17:24:26 64° ENE 17:29:53 10° N
NOSS 3-1 (A) 3.9 17:18:08 10° NW 17:25:25 83° NE 17:32:19 17° SE
Okean 1-7 4.3 17:21:42 10° SW 17:25:49 40° WNW 17:30:01 10° N
Cosmos 2315 Rocket 4.0 17:21:29 10° N 17:27:43 55° ENE 17:33:50 10° SSE
Cosmos 1943 3.4 17:23:10 10° S 17:28:30 46° ESE 17:28:52 45° E
STARLINK-43 3.4 17:25:54 10° WSW 17:29:23 68° S 17:29:23 68° S
Cosmos 2360 Rocket 4.4 17:27:48 10° NW 17:30:13 13° NNW 17:32:34 10° N
Cosmos 407 Rocket 4.3 17:26:37 10° SW 17:31:43 50° WNW 17:35:16 20° N
IRIDIUM 103 4.2 17:26:58 10° S 17:32:08 66° E 17:35:11 25° NNE
FALCON 9 DEB 3.6 17:30:18 10° W 17:33:14 57° WNW 17:33:14 57° WNW
Meteor 2-13 Rocket 4.3 17:28:41 10° S 17:34:46 85° E 17:40:55 10° NNE
Meteor 1-12 Rocket 4.3 17:29:05 10° NNW 17:34:59 81° W 17:40:42 10° S
Lacrosse 5 2.2 17:31:32 10° SSW 17:36:23 47° SE 17:36:27 47° SE
Cosmos 2369 Rocket 2.9 17:31:20 10° NW 17:36:48 54° WSW 17:42:18 10° S
USA 81 4.1 17:33:02 10° SSE 17:37:48 55° ESE 17:37:48 55° ESE
Cosmos 1300 Rocket 4.0 17:34:17 10° NNW 17:38:34 61° W 17:42:48 10° S
Cosmos 1980 Rocket 4.2 17:36:35 10° NNW 17:38:46 13° N 17:38:46 13° N
Cosmos 1241 Rocket 4.4 17:33:20 10° SW 17:39:43 87° SE 17:41:56 43° NE
SeaSat 1 3.9 17:43:42 23° N 17:43:42 23° N 17:46:08 10° NNW
Cosmos 1850 Rocket 4.2 17:37:27 10° S 17:42:01 52° SE 17:42:01 52° SE
Lacrosse 4 Rocket 2.4 17:38:32 10° NNW 17:41:14 36° N 17:41:14 36° N
COSMO-SKYMED 1 2.6 17:41:45 53° N 17:42:42 78° WNW 17:47:03 10° SSW
Okean 3 3.7 17:42:28 10° SSW 17:46:37 66° WNW 17:47:16 56° NNW
YAOGAN 1 2.9 17:43:16 10° S 17:47:34 65° WSW 17:51:53 10° NNW
SL-16 R/B 3.2 17:44:18 10° WSW 17:49:42 42° NW 17:52:44 24° N
IRIDIUM 106 4.2 17:45:12 10° S 17:50:26 90° W 17:53:22 27° N
Cosmos 1814 Rocket 4.3 17:45:18 10° NNW 17:49:26 49° NNE 17:49:26 49° NNE
Meteor 1-13 Rocket 4.0 17:45:01 10° S 17:50:34 72° E 17:51:05 67° ENE
Cosmos 192 4.3 17:45:36 10° NNW 17:50:35 85° WSW 17:51:34 58° SSE
Cosmos 1943 Rocket 3.7 17:46:05 10° NW 17:51:12 36° WSW 17:56:15 10° S
Cosmos 2208 Rocket 3.9 17:50:26 10° NNW 17:55:55 82° ENE 17:56:17 76° ESE
Cosmos 2237 Rocket 4.1 17:52:05 10° W 17:56:31 23° NW 17:59:30 15° N
Cosmos 1603 3.6 17:51:13 10° SSW 17:56:58 88° ESE 17:57:52 65° NNE
Cosmos 2219 Rocket 4.4 17:57:56 10° NW 18:01:00 15° NNW 18:03:08 12° N
Cosmos 1655 Rocket 4.3 17:55:01 10° SSW 18:01:15 66° WNW 18:07:29 10° N
IRS-1A Rocket 4.2 18:02:12 73° E 18:02:30 75° ENE 18:08:26 10° NNW
Cosmos 2322 Rocket 4.5 18:00:56 10° NNW 18:02:34 11° N 18:02:34 11° N
H-2A R/B 4.4 18:07:27 10° N 18:07:27 10° N 18:07:27 10° N
ATLAS 2AS CENTAUR R/B 3.7 17:57:12 10° WNW 18:04:28 36° N 18:05:48 34° NNE
Ariane Rocket 3.8 18:06:38 40° N 18:06:38 40° N 18:09:52 10° NNW
Cosmos 1570 Rocket 4.1 18:02:18 10° NNW 18:07:33 74° WSW 18:08:05 67° SSW
Cosmos 1763 Rocket 3.8 18:02:54 10° NNW 18:07:56 61° WSW 18:09:32 41° S
CSL-04 Rocket 4.5 18:06:05 10° S 18:11:10 48° W 18:16:22 10° NNW
Lacrosse 5 rocket 3.1 18:07:47 10° WNW 18:09:54 26° NW 18:09:54 26° NW
Cosmos 2333 Rocket 4.4 18:08:51 10° NW 18:11:53 14° NNW 18:13:35 13° N
USA 215 3.2 18:12:58 63° NE 18:14:02 77° NNW 18:20:34 10° WSW
SL-4 R/B 3.8 18:10:56 10° W 18:13:40 27° SW 18:13:40 27° SW
SL-16 R/B 4.5 18:13:44 10° NNW 18:14:57 12° N 18:14:57 12° N
COSMOS 2455 4.5 18:16:50 10° NNW 18:20:15 21° N 18:20:15 21° N
Meteor 2-4 Rocket 4.4 18:18:54 10° SSW 18:24:34 52° WNW 18:27:04 31° N
Cosmos 2266 Rocket 4.4 18:20:14 10° SSW 18:26:34 63° WNW 18:31:06 20° N
CZ-4C R/B 3.4 18:52:31 10° WSW 18:55:39 37° WSW 18:55:39 37° WSW
Lacrosse 5 4.3 19:14:14 10° WSW 19:15:41 19° W 19:15:41 19° W
ATLAS 2AS CENTAUR R/B 4.3 19:49:15 10° NW 19:53:15 31° NNW 19:53:15 31° NNW
